Temp
-9 -8 -8 -8 -8 -7 -7 -8 -9 -9 -10 -9 -10 -10 -10 -9 -9 -8 -8 -7 -7 -7 -7 -7 -7 -8 -7 -7 -7 -7 -7 -7 -7 -7 -7 -7 -8 -8 -8 -9 -9 -9 -9 -9 -9 -10 -10 -10 -11
-8 -8 -8 -8 -8 -8 -8 -9 -9 -10 -10 -10 -10 -11 -11 -10 -9 -8 -8 -7 -7 -7 -7 -7 -7 -8 -8 -8 -7 -7 -7 -7 -7 -7 -7 -7 -8 -8 -9 -9 -9 -10 -10 -10 -10 -10 -11 -11 -11
-8 -8 -8 -8 -8 -8 -8 -9 -10 -10 -9 -10 -11 -11 -11 -11 -10 -8 -8 -8 -8 -8 -7 -7 -7 -8 -8 -8 -8 -8 -8 -7 -7 -8 -8 -8 -8 -8 -9 -9 -10 -10 -10 -11 -11 -11 -12 -11 -11
-9 -8 -8 -8 -8 -9 -9 -9 -10 -11 -11 -11 -9 -9 -9 -10 -10 -8 -8 -9 -9 -8 -8 -7 -7 -8 -8 -8 -8 -8 -8 -8 -8 -8 -8 -8 -8 -9 -9 -10 -10 -10 -11 -11 -10 -11 -12 -13 -11
-9 -9 -8 -8 -8 -9 -9 -9 -10 -10 -10 -10 -9 -9 -9 -10 -9 -9 -8 -8 -8 -9 -8 -8 -8 -8 -9 -8 -8 -8 -8 -8 -8 -8 -8 -8 -8 -9 -10 -10 -10 -11 -11 -11 -11 -11 -11 -11 -12
-9 -10 -9 -9 -9 -9 -9 -10 -10 -10 -11 -11 -10 -9 -10 -10 -9 -9 -8 -7 -8 -9 -9 -8 -8 -9 -9 -9 -9 -8 -9 -9 -9 -8 -8 -8 -9 -9 -10 -10 -11 -11 -11 -11 -12 -11 -12 -12 -12
-9 -10 -9 -9 -9 -9 -10 -10 -10 -10 -10 -11 -11 -10 -10 -10 -9 -9 -8 -8 -9 -9 -9 -9 -8 -9 -9 -9 -9 -9 -9 -9 -9 -9 -9 -9 -9 -10 -10 -11 -11 -11 -11 -10 -11 -12 -12 -12 -12
-10 -9 -8 -9 -9 -9 -10 -10 -10 -10 -10 -11 -10 -9 -10 -9 -9 -9 -9 -8 -8 -9 -9 -9 -9 -9 -9 -9 -9 -9 -9 -9 -9 -9 -9 -9 -10 -11 -11 -11 -11 -11 -11 -11 -12 -12 -12 -11 -12
-10 -8 -8 -9 -10 -10 -10 -10 -11 -11 -10 -11 -11 -10 -10 -10 -10 -10 -9 -9 -9 -9 -10 -10 -9 -9 -10 -10 -10 -10 -9 -9 -9 -9 -9 -10 -10 -11 -12 -11 -11 -11 -11 -12 -12 -12 -12 -12 -12
-9 -9 -9 -10 -10 -11 -11 -11 -10 -10 -10 -11 -11 -11 -11 -10 -10 -10 -10 -9 -9 -9 -10 -10 -10 -10 -10 -10 -10 -10 -10 -10 -10 -10 -10 -10 -11 -12 -12 -12 -12 -12 -12 -12 -13 -12 -12 -12 -12
-10 -8 -10 -10 -10 -10 -11 -12 -11 -11 -10 -10 -11 -11 -11 -11 -10 -11 -10 -10 -10 -10 -10 -11 -11 -10 -10 -10 -10 -10 -10 -10 -10 -10 -11 -11 -12 -12 -12 -12 -12 -12 -13 -13 -13 -12 -12 -12 -12
-9 -10 -10 -10 -11 -11 -11 -12 -11 -11 -11 -11 -11 -11 -11 -11 -11 -11 -11 -10 -10 -10 -10 -10 -11 -10 -10 -11 -11 -11 -11 -11 -11 -11 -12 -12 -13 -13 -12 -13 -13 -13 -13 -13 -12 -12 -12 -12 -12
-10 -11 -10 -10 -11 -12 -12 -11 -11 -11 -11 -12 -12 -12 -11 -11 -11 -11 -11 -11 -11 -10 -11 -11 -11 -11 -11 -11 -11 -11 -11 -11 -11 -12 -12 -13 -13 -13 -13 -13 -13 -13 -13 -13 -13 -12 -12 -12 -12
-11 -11 -10 -10 -11 -11 -12 -11 -12 -12 -13 -12 -12 -12 -12 -12 -12 -11 -11 -11 -11 -11 -10 -10 -12 -11 -11 -11 -11 -11 -12 -12 -12 -13 -13 -13 -13 -13 -13 -13 -13 -13 -13 -13 -13 -12 -12 -12 -12
-11 -11 -11 -11 -12 -13 -14 -11 -12 -12 -13 -12 -13 -12 -12 -12 -12 -11 -11 -11 -11 -11 -11 -10 -10 -12 -11 -11 -11 -12 -12 -13 -13 -13 -14 -14 -14 -13 -13 -13 -13 -13 -14 -13 -13 -13 -13 -12 -12
-12 -12 -12 -13 -14 -14 -16 -11 -12 -13 -13 -12 -13 -13 -12 -12 -12 -12 -12 -12 -12 -11 -11 -11 -10 -11 -11 -11 -12 -12 -12 -13 -14 -14 -14 -14 -14 -13 -13 -13 -13 -13 -13 -13 -13 -13 -13 -13 -12
-14 -13 -14 -13 -15 -15 -16 -14 -12 -13 -14 -14 -13 -13 -12 -11 -12 -12 -12 -12 -12 -12 -11 -11 -10 -11 -11 -11 -12 -12 -13 -14 -15 -15 -15 -14 -14 -13 -13 -13 -13 -13 -13 -13 -13 -13 -13 -13 -12
-15 -14 -14 -13 -15 -15 -15 -14 -14 -14 -14 -14 -13 -14 -14 -14 -13 -13 -12 -12 -12 -12 -12 -11 -11 -11 -11 -12 -12 -12 -13 -15 -15 -15 -15 -15 -14 -14 -14 -13 -13 -13 -13 -13 -13 -13 -13 -13 -12
-15 -15 -15 -15 -15 -16 -15 -15 -14 -14 -15 -13 -14 -14 -16 -15 -15 -15 -14 -12 -12 -12 -12 -11 -11 -11 -11 -12 -12 -13 -15 -15 -15 -15 -15 -15 -14 -14 -14 -14 -13 -13 -13 -13 -13 -13 -13 -13 -12
-16 -15 -15 -15 -15 -16 -16 -15 -15 -15 -14 -15 -16 -16 -15 -16 -16 -15 -14 -13 -13 -12 -12 -11 -11 -11 -11 -12 -12 -13 -15 -15 -16 -15 -15 -14 -14 -14 -14 -14 -14 -13 -13 -13 -13 -13 -13 -13 -12
-16 -16 -16 -16 -16 -16 -16 -15 -15 -15 -17 -17 -17 -17 -16 -15 -16 -16 -16 -14 -13 -13 -12 -12 -11 -11 -11 -12 -12 -13 -14 -15 -15 -15 -15 -15 -15 -14 -14 -14 -14 -14 -13 -13 -13 -13 -13 -13 -13
-16 -18 -17 -16 -16 -16 -17 -15 -15 -16 -17 -17 -17 -16 -17 -15 -14 -16 -16 -15 -14 -13 -12 -12 -11 -11 -12 -12 -13 -13 -14 -15 -16 -15 -15 -15 -15 -15 -14 -14 -14 -14 -14 -13 -13 -13 -13 -13 -14
-17 -17 -18 -17 -17 -17 -17 -17 -15 -16 -17 -17 -16 -15 -17 -17 -16 -16 -15 -14 -14 -13 -12 -12 -12 -12 -12 -12 -13 -13 -15 -15 -15 -15 -16 -15 -15 -15 -15 -14 -14 -14 -14 -14 -13 -13 -13 -13 -13
-19 -19 -19 -18 -19 -17 -18 -17 -15 -17 -17 -17 -16 -16 -16 -16 -16 -16 -15 -15 -14 -13 -12 -11 -11 -12 -12 -13 -13 -14 -15 -16 -15 -16 -16 -15 -15 -15 -15 -14 -14 -14 -14 -14 -14 -13 -14 -13 -13
-19 -19 -19 -19 -19 -18 -18 -17 -17 -17 -17 -16 -16 -16 -15 -17 -17 -17 -15 -14 -14 -13 -12 -12 -12 -12 -12 -13 -14 -14 -16 -16 -15 -16 -16 -15 -15 -15 -15 -14 -14 -14 -14 -14 -14 -14 -14 -13 -12
-20 -21 -20 -19 -19 -19 -18 -16 -17 -17 -16 -16 -16 -16 -16 -16 -17 -16 -14 -14 -14 -13 -12 -12 -12 -12 -13 -14 -14 -15 -16 -16 -16 -16 -16 -15 -15 -15 -15 -14 -14 -14 -13 -13 -13 -13 -13 -13 -14
-20 -20 -21 -20 -20 -20 -18 -18 -18 -18 -16 -15 -15 -17 -17 -17 -16 -16 -15 -14 -13 -13 -12 -12 -12 -12 -14 -15 -15 -16 -16 -16 -16 -16 -16 -15 -15 -15 -15 -14 -14 -14 -14 -14 -14 -13 -12 -13 -13
-20 -21 -21 -20 -20 -19 -18 -18 -19 -18 -17 -16 -16 -17 -17 -18 -16 -15 -15 -14 -13 -13 -13 -13 -13 -13 -16 -15 -16 -16 -16 -16 -16 -17 -16 -15 -15 -15 -15 -15 -14 -14 -14 -14 -14 -13 -13 -13 -13
-21 -21 -21 -20 -20 -20 -19 -18 -18 -17 -16 -17 -17 -17 -17 -17 -16 -16 -15 -14 -14 -14 -14 -14 -14 -14 -14 -15 -16 -16 -16 -16 -16 -17 -16 -16 -16 -15 -15 -15 -14 -14 -14 -13 -14 -13 -13 -13 -13
-21 -20 -21 -20 -20 -20 -19 -18 -18 -18 -17 -17 -18 -17 -17 -17 -17 -16 -15 -15 -15 -15 -14 -15 -15 -15 -15 -15 -15 -16 -16 -16 -16 -16 -16 -16 -15 -15 -15 -15 -15 -14 -14 -14 -14 -14 -13 -13 -13
Height
5831 5831 5831 5831 5833 5833 5835 5841 5840 5844 5843 5840 5840 5844 5845 5846 5847 5848 5845 5847 5847 5848 5848 5849 5849 5849 5849 5848 5848 5848 5847 5846 5845 5843 5842 5840 5838 5836 5834 5834 5833 5833 5831 5829 5829 5829 5828 5828 5830
5825 5825 5825 5824 5827 5827 5834 5835 5837 5835 5834 5835 5837 5839 5841 5840 5840 5839 5842 5843 5843 5844 5844 5844 5845 5845 5844 5844 5843 5843 5843 5841 5841 5839 5838 5836 5834 5832 5830 5829 5828 5828 5826 5825 5825 5824 5824 5823 5824
5819 5819 5821 5819 5821 5826 5828 5829 5832 5830 5828 5826 5828 5830 5834 5836 5832 5833 5837 5838 5839 5839 5840 5840 5840 5841 5840 5839 5839 5839 5839 5837 5836 5834 5833 5831 5829 5827 5826 5824 5823 5823 5822 5821 5819 5815 5817 5819 5819
5811 5812 5815 5813 5816 5823 5822 5824 5824 5821 5818 5819 5821 5824 5825 5826 5827 5826 5831 5836 5834 5833 5834 5834 5835 5835 5835 5834 5834 5835 5834 5833 5832 5830 5829 5827 5825 5822 5822 5819 5818 5818 5818 5819 5816 5812 5810 5814 5815
5805 5806 5805 5806 5813 5815 5815 5818 5821 5821 5816 5814 5816 5819 5820 5817 5819 5819 5823 5829 5831 5828 5827 5828 5829 5831 5830 5829 5829 5829 5828 5827 5826 5825 5823 5822 5819 5818 5816 5815 5815 5813 5814 5815 5813 5812 5811 5808 5809
5797 5799 5797 5800 5803 5806 5810 5812 5813 5815 5815 5813 5809 5812 5814 5811 5810 5812 5817 5823 5824 5824 5822 5822 5823 5825 5825 5823 5823 5824 5823 5821 5821 5820 5818 5817 5815 5813 5812 5810 5810 5810 5809 5809 5810 5810 5809 5810 5808
5790 5790 5790 5791 5794 5799 5803 5804 5805 5806 5807 5804 5804 5804 5805 5805 5803 5805 5810 5815 5819 5817 5816 5816 5817 5818 5818 5817 5817 5817 5816 5815 5815 5814 5812 5810 5809 5807 5806 5805 5805 5804 5804 5804 5805 5805 5806 5804 5808
5782 5780 5779 5780 5786 5792 5794 5794 5794 5795 5795 5793 5797 5797 5797 5796 5797 5798 5801 5805 5810 5810 5809 5810 5810 5811 5811 5811 5811 5811 5810 5809 5809 5807 5805 5803 5801 5801 5800 5800 5799 5799 5799 5798 5799 5800 5801 5802 5804
5773 5771 5771 5774 5779 5784 5783 5783 5785 5782 5783 5785 5788 5790 5790 5791 5790 5790 5793 5796 5801 5805 5802 5802 5803 5804 5804 5804 5804 5804 5804 5803 5803 5801 5799 5796 5795 5794 5794 5794 5794 5794 5793 5792 5794 5796 5797 5799 5800
5762 5764 5765 5768 5768 5769 5770 5771 5772 5774 5772 5771 5780 5781 5781 5782 5783 5784 5785 5787 5790 5795 5796 5794 5795 5797 5797 5797 5797 5797 5797 5797 5796 5794 5792 5790 5789 5789 5788 5788 5788 5788 5787 5787 5787 5790 5792 5793 5794
5754 5754 5756 5756 5757 5758 5760 5762 5764 5764 5766 5764 5769 5773 5774 5771 5773 5776 5779 5780 5781 5785 5788 5787 5787 5789 5789 5790 5790 5790 5790 5789 5788 5787 5785 5784 5784 5783 5783 5781 5780 5781 5780 5781 5782 5784 5785 5788 5790
5741 5743 5745 5747 5746 5747 5748 5749 5752 5752 5753 5756 5762 5763 5763 5764 5764 5767 5769 5772 5773 5776 5781 5780 5780 5781 5782 5783 5783 5783 5783 5781 5781 5780 5778 5778 5779 5777 5776 5774 5773 5774 5774 5775 5776 5777 5779 5783 5785
5731 5735 5736 5734 5733 5733 5736 5738 5740 5742 5745 5747 5750 5752 5752 5754 5758 5759 5759 5759 5763 5766 5770 5773 5771 5773 5774 5775 5776 5776 5776 5774 5773 5773 5772 5771 5773 5772 5770 5766 5766 5768 5767 5769 5770 5771 5773 5776 5779
5722 5722 5723 5725 5722 5721 5721 5728 5729 5735 5733 5736 5739 5741 5743 5742 5744 5749 5749 5749 5754 5758 5759 5763 5764 5765 5765 5767 5769 5770 5769 5767 5767 5766 5766 5765 5766 5765 5764 5760 5761 5761 5762 5762 5764 5766 5769 5771 5773
5708 5711 5713 5713 5712 5712 5708 5710 5716 5722 5720 5720 5723 5726 5729 5730 5732 5736 5740 5741 5745 5749 5750 5753 5756 5757 5758 5759 5762 5762 5761 5761 5760 5759 5760 5758 5759 5758 5757 5756 5754 5754 5755 5758 5760 5762 5764 5765 5767
5698 5699 5703 5705 5701 5702 5696 5700 5707 5707 5704 5707 5709 5710 5714 5718 5721 5724 5729 5733 5734 5739 5741 5742 5747 5750 5751 5753 5755 5754 5754 5754 5753 5753 5753 5752 5753 5752 5751 5750 5751 5751 5752 5753 5754 5756 5759 5760 5761
5688 5692 5690 5695 5690 5690 5684 5684 5697 5691 5691 5693 5694 5696 5698 5702 5708 5712 5716 5722 5724 5728 5731 5732 5736 5740 5744 5746 5747 5746 5747 5747 5746 5747 5747 5746 5747 5746 5746 5746 5746 5748 5749 5749 5749 5751 5753 5754 5755
5680 5679 5680 5683 5682 5674 5674 5673 5684 5681 5677 5679 5681 5682 5683 5690 5695 5699 5702 5707 5713 5717 5722 5723 5727 5731 5736 5737 5738 5739 5741 5741 5741 5742 5741 5740 5740 5740 5740 5741 5741 5743 5744 5744 5745 5746 5747 5749 5749
5671 5670 5672 5673 5674 5664 5667 5664 5670 5668 5664 5668 5670 5670 5674 5675 5683 5685 5691 5696 5702 5707 5711 5713 5719 5723 5727 5730 5731 5733 5735 5734 5735 5736 5736 5735 5734 5734 5735 5736 5736 5738 5738 5738 5739 5741 5742 5742 5742
5663 5663 5664 5666 5663 5656 5659 5655 5656 5654 5653 5656 5658 5657 5660 5663 5670 5676 5682 5686 5690 5696 5702 5704 5709 5714 5719 5722 5724 5727 5727 5727 5729 5731 5730 5729 5729 5729 5729 5730 5731 5732 5732 5732 5733 5734 5736 5736 5736
5657 5652 5653 5653 5650 5650 5645 5648 5647 5645 5644 5645 5647 5647 5649 5653 5659 5663 5669 5675 5680 5686 5692 5696 5702 5708 5712 5714 5717 5719 5719 5721 5724 5725 5724 5722 5723 5723 5723 5723 5724 5724 5724 5724 5725 5727 5729 5730 5729
5647 5644 5644 5642 5639 5639 5636 5633 5638 5636 5637 5637 5640 5637 5638 5638 5644 5651 5657 5666 5671 5677 5683 5688 5693 5700 5704 5706 5709 5710 5712 5715 5718 5719 5718 5716 5717 5717 5717 5717 5716 5715 5715 5714 5716 5718 5721 5723 5725
5638 5635 5635 5633 5631 5628 5632 5626 5630 5629 5629 5632 5628 5625 5629 5635 5641 5648 5653 5657 5658 5665 5674 5679 5685 5691 5696 5698 5701 5701 5704 5707 5710 5711 5711 5711 5711 5711 5711 5710 5708 5707 5706 5705 5705 5708 5712 5715 5720
5630 5627 5625 5625 5624 5621 5628 5620 5622 5620 5622 5622 5624 5624 5625 5630 5636 5641 5647 5653 5657 5662 5668 5674 5679 5682 5685 5689 5692 5692 5696 5699 5702 5705 5703 5704 5705 5705 5704 5702 5701 5700 5700 5698 5699 5700 5703 5708 5713
5620 5618 5616 5615 5616 5615 5617 5615 5615 5611 5609 5611 5614 5619 5622 5628 5630 5633 5639 5644 5648 5653 5660 5665 5669 5672 5675 5678 5680 5684 5688 5692 5696 5697 5696 5697 5699 5698 5698 5697 5696 5694 5694 5692 5694 5695 5696 5700 5706
5612 5611 5610 5608 5608 5608 5609 5607 5611 5608 5607 5607 5608 5614 5618 5621 5625 5628 5631 5636 5640 5647 5652 5656 5659 5662 5667 5667 5670 5674 5679 5684 5689 5691 5690 5691 5692 5692 5692 5692 5691 5689 5688 5687 5687 5686 5688 5694 5700
5605 5604 5607 5601 5604 5602 5604 5604 5602 5600 5600 5599 5601 5609 5612 5615 5618 5621 5626 5629 5635 5640 5644 5646 5649 5652 5654 5656 5660 5666 5672 5678 5682 5685 5683 5686 5686 5687 5687 5687 5686 5685 5684 5682 5680 5677 5680 5687 5692
5596 5602 5600 5597 5598 5596 5597 5597 5591 5596 5595 5595 5597 5601 5604 5609 5613 5616 5619 5623 5628 5633 5637 5639 5633 5629 5639 5646 5649 5657 5664 5670 5675 5678 5678 5681 5681 5682 5682 5682 5682 5681 5679 5677 5673 5672 5675 5680 5685
5591 5590 5592 5592 5592 5591 5592 5592 5590 5592 5590 5591 5592 5595 5598 5603 5607 5610 5613 5617 5622 5625 5629 5630 5634 5634 5633 5637 5643 5651 5657 5666 5669 5671 5673 5675 5676 5677 5678 5677 5677 5677 5675 5673 5671 5669 5672 5675 5679
5580 5582 5585 5585 5587 5587 5587 5587 5587 5590 5589 5584 5587 5589 5592 5596 5600 5604 5607 5611 5616 5620 5621 5624 5626 5627 5629 5633 5639 5647 5652 5660 5663 5665 5667 5670 5672 5672 5674 5674 5673 5673 5671 5671 5669 5668 5667 5670 5674
Wind_Speed
29 32 34 35 38 36 33 24 23 14 20 28 30 35 39 33 29 32 31 24 23 20 20 20 20 18 21 23 25 25 24 25 27 27 27 24 24 24 24 24 24 25 26 28 26 25 22 23 27
31 33 35 37 36 34 28 24 21 17 28 31 33 34 38 40 33 35 31 26 23 22 22 22 22 20 23 25 26 25 24 24 27 28 27 26 24 24 24 24 25 25 27 28 27 26 23 21 25
37 37 37 38 36 31 28 26 20 24 31 32 35 40 39 37 38 36 32 31 26 27 26 25 24 21 24 28 27 25 26 25 26 27 27 27 26 25 24 25 26 24 25 25 27 30 24 23 24
39 40 40 43 39 28 30 27 21 24 33 37 41 40 38 37 38 40 36 31 30 32 30 29 27 23 24 29 28 27 27 26 26 28 29 27 27 26 26 26 26 24 23 25 29 31 26 24 25
41 41 43 43 38 35 34 30 23 25 37 42 41 40 37 35 37 43 40 35 33 35 35 32 30 25 25 30 29 27 26 26 26 29 29 30 29 28 27 27 26 23 20 23 28 31 31 28 28
42 42 45 43 40 40 36 29 29 28 35 41 43 41 42 45 45 43 40 36 37 37 37 35 32 25 26 31 29 27 23 25 27 30 30 30 30 29 30 28 26 23 20 24 25 31 26 27 28
42 44 45 46 44 42 35 33 34 36 37 43 43 41 42 43 46 45 40 36 35 37 38 36 32 26 25 29 29 26 25 26 28 29 29 30 31 31 30 28 25 25 24 26 26 29 27 21 27
45 45 45 46 45 39 33 35 36 38 43 46 46 44 45 46 47 47 43 40 36 36 38 36 33 26 25 27 28 26 26 26 28 29 29 31 31 31 29 27 28 28 27 28 26 25 22 18 24
45 47 46 45 44 40 40 40 37 42 45 47 44 46 47 45 47 47 47 45 40 35 38 39 36 28 25 28 29 28 28 26 27 30 32 33 34 31 29 28 28 29 28 27 28 26 18 21 26
45 44 45 46 50 50 48 50 50 48 52 54 43 46 46 47 45 43 42 42 41 37 37 37 36 31 26 29 30 29 29 28 28 31 32 34 33 34 30 28 28 29 29 27 26 25 25 20 25
43 46 41 46 51 56 54 50 52 56 55 57 48 41 39 47 46 43 42 43 43 39 36 35 36 31 27 29 31 31 31 29 29 31 33 33 31 32 28 27 28 29 29 28 25 26 27 21 20
48 45 44 46 50 54 55 54 55 58 57 56 52 47 46 48 50 49 47 44 44 43 36 34 36 30 29 31 33 30 30 31 30 31 33 31 29 30 27 26 27 29 29 26 25 27 24 24 21
47 43 46 47 49 50 53 55 56 58 57 56 49 52 53 50 51 51 49 50 44 41 37 38 37 35 33 32 32 30 32 31 33 33 33 31 29 28 23 25 28 28 28 23 24 31 22 24 24
43 46 49 52 50 51 50 48 54 51 53 54 54 52 54 55 53 52 53 52 45 40 37 37 31 35 34 35 30 32 31 32 35 36 33 28 28 27 22 25 27 26 26 21 24 28 28 28 26
45 47 45 48 45 46 52 53 49 47 53 58 57 55 57 55 55 54 53 51 46 39 37 36 35 32 35 34 32 33 31 34 36 36 32 28 26 25 23 22 27 24 20 21 24 26 26 30 27
42 44 44 42 43 45 49 52 47 50 55 55 56 59 59 61 58 55 55 50 46 39 38 41 37 33 34 33 33 33 32 35 35 34 30 29 25 24 22 21 24 25 18 19 21 27 27 27 27
39 39 41 39 43 45 48 53 44 53 56 58 58 63 63 63 58 54 54 51 45 39 40 40 37 36 34 36 35 34 34 33 31 29 28 27 25 24 21 21 24 25 19 18 19 23 26 25 27
35 40 41 38 42 48 51 54 47 50 54 57 62 59 52 53 56 52 54 50 43 40 41 42 40 37 34 35 36 35 34 30 30 26 28 26 26 22 22 21 24 25 20 18 19 21 24 31 26
37 39 39 40 40 45 46 49 45 45 46 50 45 54 47 51 48 49 46 46 46 42 41 42 39 38 36 35 37 34 27 29 29 24 26 25 26 23 22 21 24 24 23 20 20 20 25 26 23
34 37 37 38 40 43 40 42 41 43 46 46 36 42 46 48 42 39 41 39 40 39 39 45 41 40 35 35 38 35 29 30 26 24 23 24 24 24 23 23 25 26 28 28 27 26 25 22 27
31 36 38 40 42 42 43 42 39 38 40 42 41 43 37 40 32 49 43 33 36 38 38 43 43 40 36 36 39 36 36 28 24 24 21 22 21 22 23 24 28 31 33 34 35 33 30 29 25
30 33 36 40 43 43 41 46 36 34 30 25 21 19 26 34 40 37 43 36 39 41 41 39 42 37 34 37 36 39 34 26 24 23 20 20 20 22 24 27 29 28 30 34 35 35 33 31 25
39 40 39 40 41 43 40 41 33 22 19 25 26 31 26 27 36 32 35 37 42 42 41 39 41 39 36 39 38 40 33 26 24 22 19 19 21 23 24 25 25 25 27 30 31 34 33 34 26
36 39 42 41 39 42 26 30 28 19 17 31 32 29 28 20 21 32 31 35 35 36 35 35 39 40 38 39 38 40 32 29 26 21 18 20 21 22 23 24 25 25 21 20 19 29 32 34 32
32 35 37 39 39 38 24 25 9 13 20 27 28 29 22 17 14 29 30 32 34 33 34 37 38 42 40 39 41 38 32 32 27 23 18 20 21 20 21 21 22 21 23 20 21 20 30 30 33
31 31 31 33 29 27 23 24 18 19 17 12 22 32 24 23 20 25 26 30 32 33 33 34 41 43 37 40 42 37 34 32 28 24 18 21 20 18 21 21 22 21 23 21 23 25 22 31 34
29 32 19 33 27 26 22 20 24 26 18 13 25 26 22 24 20 23 29 29 30 31 34 42 42 43 36 36 42 36 35 31 28 23 19 21 18 17 22 20 21 20 19 19 25 22 35 38 36
32 26 25 29 27 31 18 17 28 28 24 11 23 25 30 24 25 24 26 28 28 31 31 29 33 39 32 33 39 40 36 33 28 25 20 21 18 17 20 19 19 18 16 17 17 17 26 32 34
28 36 25 25 29 29 17 13 21 21 17 14 24 23 22 24 23 22 25 30 27 26 24 23 26 27 26 29 40 42 37 31 29 23 21 20 20 17 18 18 18 18 15 13 14 8 23 25 32
40 32 24 25 21 23 21 21 20 11 13 1 9 14 25 19 19 22 27 29 26 24 21 22 27 33 29 30 39 39 34 33 27 23 21 20 22 18 17 19 17 17 16 12 12 10 14 21 29
Wind_Direction
269 267 265 263 262 264 265 269 264 251 228 248 219 243 253 263 259 259 265 271 275 280 287 285 280 272 276 279 286 289 297 307 306 298 294 293 292 290 291 292 294 294 292 288 284 278 272 258 248
269 268 266 264 264 264 264 266 264 223 223 241 242 243 254 256 253 255 261 269 276 281 280 283 283 275 274 275 282 286 288 299 301 297 290 292 290 289 289 292 292 293 289 285 283 270 261 261 252
266 266 266 266 266 269 269 262 269 266 256 247 257 259 255 257 254 255 261 265 278 275 277 280 279 275 269 273 277 280 285 292 297 294 291 293 290 289 288 287 289 288 285 282 279 261 240 251 249
262 264 266 268 268 271 271 265 251 223 241 246 258 262 254 245 248 258 259 264 269 271 272 273 277 277 265 271 275 279 284 290 292 292 294 292 289 287 287 284 284 284 286 284 284 264 248 244 249
265 263 264 265 270 268 266 261 263 252 260 265 270 270 272 270 257 253 260 263 267 269 271 273 274 277 264 267 270 276 282 286 291 294 293 293 291 290 286 286 283 280 284 283 282 265 276 259 240
267 266 265 266 263 262 263 266 267 255 247 256 272 271 269 268 265 265 263 262 264 267 268 269 272 274 263 266 269 275 277 284 292 290 287 289 291 289 288 284 282 284 276 273 269 266 273 284 249
267 267 269 268 263 260 262 260 259 261 260 250 259 265 269 266 269 270 268 263 269 270 268 269 273 273 260 263 266 273 278 286 291 289 290 292 291 288 286 282 279 273 271 272 267 268 268 264 242
266 266 268 267 267 264 264 261 259 259 263 264 265 268 268 272 272 270 268 266 268 275 275 275 276 271 260 259 264 269 277 283 287 290 295 295 291 290 285 280 277 278 274 267 262 264 272 248 240
265 270 272 267 267 266 259 255 247 251 254 253 259 264 268 268 271 274 274 274 271 273 274 273 272 268 254 254 260 266 274 281 285 292 295 295 291 287 283 280 276 277 273 267 262 258 251 231 236
269 271 269 266 262 260 261 261 258 250 252 252 253 259 262 261 262 269 274 275 276 274 270 271 271 268 252 250 258 264 273 279 286 294 296 295 295 290 284 279 277 274 267 260 261 253 233 234 243
270 272 265 262 261 262 262 259 260 260 256 259 256 254 256 260 260 266 271 276 274 276 274 271 269 263 249 248 256 262 272 279 287 293 293 291 292 286 281 276 275 270 265 259 254 245 233 248 244
273 273 271 269 262 263 260 258 257 258 259 262 264 261 256 257 266 268 270 269 269 271 267 269 268 257 246 246 254 263 273 281 288 289 290 292 289 281 276 272 271 265 262 261 251 244 233 245 235
276 277 275 270 266 262 262 264 262 261 261 261 260 261 262 263 263 265 266 268 273 272 268 250 251 248 245 243 252 263 269 281 287 288 290 290 287 279 273 275 270 260 260 261 252 241 247 225 228
280 276 276 278 275 273 269 267 264 269 267 264 261 260 257 258 260 263 262 264 270 265 263 241 242 248 242 242 251 260 266 277 281 284 288 285 283 279 268 275 273 261 254 258 244 243 238 232 224
274 280 282 278 273 270 269 271 267 263 256 259 259 257 258 255 257 258 258 261 266 261 259 250 245 240 240 241 251 259 267 274 278 283 287 285 282 275 265 273 280 263 262 253 243 240 240 249 234
272 275 279 272 267 267 269 270 272 268 264 260 258 257 253 254 254 255 257 258 261 255 250 247 242 237 239 243 250 258 266 272 279 284 288 287 282 271 264 271 277 282 276 257 245 240 243 243 236
275 280 271 268 264 261 262 264 270 264 263 263 260 257 253 250 250 252 253 254 253 254 247 244 241 237 232 243 251 257 263 272 279 283 282 284 280 266 260 265 271 271 266 255 248 242 247 261 239
268 268 270 274 268 265 265 268 267 266 269 268 268 260 258 255 249 249 248 247 247 248 243 243 238 236 232 243 252 256 264 271 271 276 276 282 279 265 259 260 265 264 262 257 249 248 254 246 243
270 273 276 274 272 276 277 276 277 277 279 277 278 264 255 249 249 246 249 246 248 241 243 243 237 236 234 244 251 255 259 258 265 270 272 278 278 263 258 259 261 261 260 256 255 261 257 261 230
271 274 275 273 274 275 277 282 287 281 278 276 265 260 250 243 235 239 244 245 249 243 238 240 237 235 234 242 248 253 248 251 256 263 269 272 269 260 261 261 260 260 260 259 258 258 264 273 227
277 279 280 279 277 278 282 281 287 284 276 272 266 255 255 248 242 235 233 244 244 244 238 236 238 233 236 244 246 249 252 252 252 253 269 270 262 260 263 266 269 268 266 263 259 256 254 248 243
284 282 281 283 286 288 289 288 293 292 274 260 242 247 238 238 237 234 230 233 241 240 240 236 234 234 239 245 247 247 250 243 246 252 265 266 259 261 267 275 273 271 270 267 257 252 249 249 254
286 284 281 279 282 284 286 297 299 283 259 232 229 248 241 243 241 239 240 235 231 231 233 233 238 240 240 247 245 243 243 239 242 251 262 257 257 264 276 277 276 275 276 268 253 246 243 245 238
281 279 279 279 278 277 300 288 309 272 241 236 240 252 266 247 243 235 240 243 248 244 237 233 240 243 245 246 246 242 236 235 241 250 260 251 254 269 281 284 282 272 275 254 254 244 238 228 231
282 281 280 276 275 282 275 280 299 241 235 228 232 243 233 246 245 236 236 229 238 242 238 237 243 248 248 245 240 231 224 233 237 253 260 253 256 277 282 279 280 278 273 258 241 250 236 232 229
277 276 276 278 279 277 273 274 271 257 253 235 247 237 231 245 248 242 235 229 230 233 236 239 243 248 252 245 231 218 220 231 236 252 256 248 259 279 281 271 272 278 267 263 261 259 228 237 227
278 274 285 268 275 276 265 274 271 274 225 197 222 252 237 245 245 236 235 232 228 231 235 243 250 254 246 239 225 212 219 227 234 250 250 244 259 276 278 273 274 280 267 263 272 233 215 232 231
267 268 253 251 261 269 281 272 263 254 269 228 239 243 241 244 250 243 231 226 224 229 237 246 245 246 222 227 213 211 217 224 231 249 243 241 256 272 281 275 272 271 281 278 280 234 226 221 223
250 251 241 250 244 259 264 244 260 250 235 273 236 232 222 231 237 231 229 232 226 225 232 236 237 248 212 225 211 213 217 226 233 241 238 240 252 267 281 278 275 275 285 289 276 236 224 220 210
231 228 233 238 237 245 260 249 247 266 211 286 332 228 223 242 235 234 230 226 216 221 237 241 224 224 228 219 212 215 219 223 229 236 236 240 249 260 274 272 283 289 289 287 269 277 221 226 223